Location: Hradec Kralove
(50.2170°N, 15.8330°E)
Time: 10:14:49
(UTC+01:00)

ISS - Pass Details

Date: 19 February 2026
Orbit: 416 x 426 km, 51.6° (Epoch: 9 March)

Event Time Altitude Azimuth Distance (km) Brightness Sun altitude
Exits shadow 05:43:02 23° 257° (WSW) 933 -2.6 -13.0°
Maximum altitude 05:44:58 86° 342° (NNW) 423 -3.8 -12.7°
Drops below altitude 10° 05:48:20 10° 75° (ENE) 1,495 0.3 -12.2°
Sets 05:50:26 0° 76° (ENE) 2,359 1.7 -11.8°
